Location: Aciu?a
(46.2833°N, 22.4500°E)
Time: 04:12:44
(UTC+00:00)

Cosmos 2173 Rocket - Pass Details

Date: 25 October 2021
Orbit: 945 x 1000 km, 83.0° (Epoch: 04 December)

Event Time Altitude Azimuth Distance (km) Brightness Sun altitude
Rises 17:10:17 0° 164° (SSE) 3,635 6.8 -18.5°
Reaches altitude 10° 17:12:52 10° 158° (SSE) 2,701 6.1 -19.0°
Maximum altitude 17:18:40 43° 89° (E) 1,341 4.2 -20.0°
Drops below altitude 10° 17:24:33 10° 20° (NNE) 2,754 6.2 -21.0°
Sets 17:27:12 0° 14° (NNE) 3,715 6.9 -21.5°
